Temp
66 67 67 67 67 67 68 68 69 69 69 69 69 69 69 68 70 77 72 77 77 79 78 74 77 76 72 66 65 66 56 50 49 51 46 53 51 55 56 53 54 55 54 55 57
66 67 67 67 67 67 67 68 68 69 68 68 69 69 69 68 75 72 80 80 79 78 76 77 75 72 65 63 61 58 51 47 50 52 49 51 52 52 51 50 50 52 56 56 56
66 67 67 66 67 67 67 68 68 68 68 68 68 67 67 69 72 71 79 79 78 78 77 77 73 70 60 60 57 53 48 50 50 53 54 50 49 51 49 44 47 46 49 52 52
66 66 66 66 66 67 67 67 68 68 69 68 67 66 66 74 61 74 77 77 78 78 78 75 71 63 55 53 56 49 51 53 52 53 52 48 50 46 47 46 51 50 50 51 51
66 66 66 66 66 67 67 67 68 69 68 67 67 68 73 67 67 77 76 75 76 76 71 72 67 61 55 54 54 50 50 50 51 51 50 51 46 45 45 49 50 50 50 48 49
65 65 66 65 65 66 66 67 68 68 67 67 68 69 72 61 75 73 70 74 72 73 69 68 65 63 54 50 50 51 50 50 51 50 50 47 46 48 46 49 48 48 46 48 48
65 65 65 65 65 65 66 66 66 66 66 67 68 75 68 65 73 72 73 70 71 71 67 66 68 64 58 51 55 52 46 49 49 49 47 51 41 39 46 47 46 45 46 46 47
65 65 64 64 64 65 66 65 65 65 67 68 70 72 63 72 72 71 72 74 73 71 68 68 68 60 57 57 54 50 49 44 47 48 49 48 33 42 46 45 43 43 44 44 46
64 64 64 64 64 64 65 65 67 69 70 70 72 70 62 75 70 69 69 68 70 71 68 71 63 56 56 52 49 48 45 43 42 48 47 45 35 42 46 44 42 43 43 43 45
63 63 63 63 63 64 64 66 70 71 72 75 72 66 68 64 67 68 68 68 66 66 65 60 54 50 48 49 45 44 45 44 42 43 42 38 37 41 43 43 41 42 42 43 43
62 62 62 63 63 63 67 71 68 66 65 60 59 60 63 68 68 66 65 67 65 59 54 53 49 43 45 46 46 45 45 42 41 44 40 37 36 40 43 43 41 41 41 42 42
62 62 62 62 62 62 65 64 62 66 59 62 62 62 65 64 62 65 66 60 56 51 53 50 44 48 48 47 46 46 43 40 41 44 40 36 35 40 41 41 40 40 40 40 42
62 62 62 62 61 65 62 62 63 64 59 60 62 62 62 64 56 58 61 56 51 49 47 46 48 50 50 43 44 44 43 40 40 39 39 37 34 36 40 40 41 42 40 41 41
61 61 61 62 66 62 62 63 63 64 51 56 59 63 64 61 55 61 59 57 52 47 46 45 49 47 46 43 43 42 43 41 39 38 34 37 32 33 34 37 39 39 39 40 41
61 60 61 62 64 63 64 63 62 66 41 56 58 67 61 58 56 59 59 57 47 47 49 45 45 43 43 43 44 43 43 42 38 36 34 33 32 29 31 32 34 37 38 39 41
60 60 60 64 62 60 61 61 65 53 41 52 57 56 56 55 53 54 53 55 54 49 47 45 49 46 45 45 45 44 43 40 37 37 33 31 32 28 29 31 33 36 38 39 40
59 59 62 64 63 59 60 62 51 44 53 49 51 54 51 49 50 48 44 41 42 43 41 44 44 46 45 44 45 40 38 36 36 34 33 32 30 31 33 35 34 34 36 38 40
58 60 61 62 58 60 61 57 42 48 48 52 52 51 48 48 45 44 43 40 41 41 38 39 41 41 45 41 38 37 36 34 30 29 30 31 28 32 35 36 36 37 37 38 39
58 57 57 59 60 60 58 46 47 48 52 52 51 47 44 48 47 43 39 39 39 40 41 38 39 44 43 42 40 39 34 36 30 28 26 30 32 34 36 36 35 35 36 36 37
55 55 56 57 57 59 53 47 47 50 51 51 47 47 43 44 44 43 39 40 41 42 41 40 38 40 43 43 41 40 39 34 31 23 26 28 26 30 31 32 33 33 33 35 37
55 54 58 55 58 54 47 45 47 51 51 50 47 46 44 44 42 40 39 40 42 42 42 40 39 38 41 36 35 37 34 29 30 27 25 21 31 33 31 32 30 32 34 35 36
51 50 57 56 50 39 44 47 51 49 50 49 50 48 45 43 41 39 41 40 42 42 40 39 37 34 34 38 40 36 32 31 28 23 18 19 26 36 33 33 32 32 34 36 37
50 49 55 57 44 39 41 45 47 49 48 49 46 48 46 43 41 39 39 42 43 41 39 40 36 34 35 35 36 34 32 28 25 23 18 22 32 33 33 32 34 32 34 35 36
49 46 49 46 43 44 43 43 44 47 47 48 46 47 44 41 41 38 38 41 42 42 48 44 34 37 35 36 34 30 31 29 29 24 20 24 30 33 34 31 32 33 33 34 36
45 44 43 42 44 43 43 43 43 44 46 46 44 46 45 37 39 38 38 38 41 47 39 39 36 34 34 35 35 35 32 29 22 28 26 30 25 33 32 31 32 32 33 34 34
46 44 39 32 42 44 39 42 44 43 44 45 45 44 44 42 43 40 39 38 39 38 36 36 34 34 33 35 34 32 34 31 30 28 27 27 28 32 34 32 31 31 32 33 33
43 44 48 36 39 41 42 43 45 45 41 41 44 43 42 41 40 38 37 37 39 37 34 34 32 30 31 31 32 32 33 32 31 30 31 28 33 32 33 33 32 32 32 32 33
MSLP
1017.48 1017.24 1017.08 1016.95 1016.78 1016.60 1016.47 1016.28 1016.05 1015.89 1015.74 1015.54 1015.30 1015.07 1014.87 1014.64 1014.21 1014.11 1014.44 1014.74 1014.15 1013.45 1013.25 1013.29 1013.24 1013.57 1014.03 1015.51 1016.40 1016.94 1018.84 1021.42 1022.70 1023.42 1025.09 1025.92 1026.41 1027.39 1028.03 1028.09 1028.45 1028.88 1029.32 1029.74 1029.58
1017.53 1017.24 1017.05 1016.90 1016.72 1016.56 1016.40 1016.21 1015.99 1015.76 1015.58 1015.38 1015.14 1014.90 1014.74 1014.62 1014.47 1014.41 1014.31 1014.02 1013.54 1013.19 1013.22 1013.22 1013.66 1014.08 1015.61 1016.97 1017.78 1018.55 1020.77 1022.92 1023.90 1024.25 1025.24 1026.31 1026.87 1027.76 1028.49 1028.91 1029.30 1029.52 1029.74 1029.83 1029.53
1017.50 1017.26 1017.01 1016.84 1016.67 1016.52 1016.32 1016.09 1015.85 1015.61 1015.42 1015.25 1015.05 1014.81 1014.65 1014.53 1014.64 1014.57 1014.00 1013.53 1013.13 1012.85 1013.08 1013.29 1013.89 1014.80 1017.04 1018.37 1019.89 1021.01 1022.65 1023.90 1024.81 1025.03 1025.80 1026.79 1027.68 1028.39 1028.89 1029.82 1030.65 1030.78 1030.62 1030.17 1029.76
1017.46 1017.28 1017.00 1016.79 1016.61 1016.52 1016.29 1015.99 1015.78 1015.54 1015.34 1015.17 1014.96 1014.67 1014.54 1014.55 1015.33 1014.71 1014.19 1013.54 1013.09 1012.76 1013.05 1013.59 1014.35 1016.15 1018.72 1020.05 1021.19 1022.51 1024.18 1024.45 1025.53 1025.98 1026.43 1027.27 1028.27 1029.51 1029.98 1031.18 1031.38 1031.34 1031.15 1030.67 1030.00
1017.51 1017.30 1016.95 1016.72 1016.59 1016.54 1016.21 1015.86 1015.63 1015.41 1015.23 1015.06 1014.81 1014.57 1014.52 1015.18 1015.67 1014.91 1014.46 1013.58 1013.04 1013.04 1013.78 1014.18 1015.26 1017.18 1019.50 1021.04 1021.94 1023.30 1024.79 1025.48 1026.06 1026.45 1027.33 1027.97 1029.06 1029.76 1031.09 1031.60 1031.62 1031.56 1031.15 1030.80 1030.51
1017.55 1017.30 1016.96 1016.60 1016.52 1016.49 1016.21 1015.75 1015.41 1015.22 1015.07 1014.90 1014.63 1014.51 1014.73 1015.75 1015.53 1015.28 1014.82 1014.03 1013.96 1013.96 1014.67 1014.81 1016.11 1017.53 1020.05 1021.95 1022.70 1024.31 1025.17 1026.09 1026.77 1027.10 1027.96 1028.49 1029.77 1029.88 1031.77 1031.99 1031.73 1031.30 1031.34 1031.16 1030.69
1017.50 1017.30 1017.02 1016.55 1016.43 1016.29 1016.04 1015.57 1015.21 1015.01 1014.86 1014.65 1014.49 1014.47 1015.41 1016.07 1015.72 1015.42 1014.95 1015.13 1014.97 1014.70 1015.52 1016.33 1016.61 1017.48 1020.33 1022.78 1024.01 1024.57 1025.54 1026.36 1027.08 1027.38 1028.26 1028.24 1030.39 1031.74 1032.31 1032.14 1031.64 1031.70 1031.46 1031.12 1030.81
1017.55 1017.28 1017.03 1016.59 1016.29 1016.08 1015.79 1015.41 1015.02 1014.77 1014.62 1014.53 1014.44 1014.71 1015.66 1015.61 1015.68 1015.62 1015.57 1015.52 1015.54 1015.54 1016.10 1016.90 1017.14 1018.65 1020.84 1022.75 1023.78 1024.29 1025.18 1025.97 1026.95 1027.41 1028.14 1028.81 1031.28 1032.23 1032.33 1032.11 1031.95 1031.91 1031.65 1031.33 1030.79
1017.65 1017.21 1016.97 1016.62 1016.21 1015.96 1015.58 1015.22 1014.86 1014.71 1014.66 1014.65 1014.68 1014.97 1015.97 1015.63 1016.03 1016.47 1016.38 1016.38 1016.21 1016.37 1016.78 1017.07 1017.82 1020.65 1022.24 1022.80 1023.71 1024.24 1024.78 1025.59 1026.89 1027.56 1028.29 1029.15 1031.38 1032.22 1032.37 1032.26 1032.07 1032.01 1031.70 1031.29 1030.58
1017.73 1017.11 1016.87 1016.58 1016.16 1015.84 1015.34 1015.13 1014.89 1014.78 1014.93 1014.88 1015.33 1015.83 1016.35 1017.08 1016.94 1016.95 1016.70 1016.64 1016.86 1017.00 1017.46 1018.41 1020.12 1021.90 1023.27 1023.30 1023.93 1024.22 1024.72 1025.58 1026.61 1028.03 1028.77 1029.90 1031.31 1032.08 1032.35 1032.22 1032.31 1032.13 1031.73 1031.30 1030.68
1017.70 1017.16 1016.81 1016.49 1016.10 1015.81 1015.24 1015.16 1015.79 1015.97 1016.46 1016.96 1017.09 1017.14 1017.20 1017.25 1017.16 1017.45 1017.40 1017.17 1017.49 1018.49 1019.82 1020.85 1022.02 1023.84 1024.37 1024.39 1024.33 1024.45 1024.85 1025.84 1027.22 1028.31 1029.25 1030.32 1031.25 1031.90 1032.20 1032.02 1032.00 1032.10 1031.85 1031.39 1030.94
1017.67 1017.28 1016.78 1016.37 1016.00 1015.81 1015.84 1016.30 1016.64 1016.94 1017.46 1017.39 1017.30 1017.38 1017.45 1017.61 1017.82 1017.90 1017.60 1018.42 1019.20 1020.57 1021.13 1022.05 1023.68 1024.51 1024.67 1024.53 1024.52 1024.75 1025.31 1026.42 1027.67 1028.52 1029.34 1030.84 1031.47 1031.95 1032.19 1032.30 1032.70 1032.63 1032.30 1031.90 1030.96
1017.64 1017.33 1016.69 1016.24 1015.82 1015.93 1016.50 1016.79 1016.82 1016.84 1017.28 1017.63 1017.55 1017.59 1017.85 1018.04 1019.44 1019.60 1019.35 1020.20 1021.12 1021.89 1022.51 1023.22 1024.75 1024.59 1024.72 1025.16 1025.11 1025.39 1025.89 1026.67 1027.61 1028.70 1029.69 1030.78 1031.34 1031.96 1032.22 1032.53 1032.65 1032.67 1032.57 1031.92 1031.43
1017.60 1017.28 1016.65 1016.08 1016.24 1016.63 1016.81 1016.78 1016.77 1016.64 1017.50 1017.91 1017.66 1017.74 1018.15 1018.56 1020.04 1020.49 1020.56 1020.91 1022.02 1023.20 1023.69 1024.57 1024.94 1025.00 1025.17 1025.69 1025.96 1026.04 1026.44 1026.77 1027.41 1028.37 1029.83 1030.61 1031.30 1032.02 1032.60 1032.51 1032.91 1032.60 1032.25 1032.01 1031.36
1017.55 1017.16 1016.78 1016.18 1016.37 1016.79 1016.88 1016.77 1016.70 1016.61 1017.83 1018.09 1017.75 1017.74 1018.65 1019.48 1020.75 1020.95 1021.26 1021.14 1022.80 1023.74 1024.14 1025.34 1025.44 1025.53 1025.76 1026.19 1026.23 1026.50 1026.47 1026.72 1027.40 1028.30 1029.34 1030.34 1031.46 1032.24 1032.91 1032.75 1032.90 1032.72 1032.45 1032.05 1031.61
1017.50 1017.11 1016.86 1016.53 1016.66 1016.92 1016.87 1016.77 1016.94 1017.69 1017.92 1018.04 1018.05 1018.36 1019.21 1020.46 1021.53 1021.97 1022.01 1022.08 1023.37 1023.91 1024.52 1025.45 1025.66 1026.03 1026.35 1026.46 1026.46 1026.55 1026.78 1027.08 1027.68 1028.16 1028.99 1030.07 1031.24 1032.14 1033.00 1033.72 1033.43 1033.05 1032.64 1032.06 1031.51
1017.40 1017.11 1016.78 1016.76 1016.91 1016.87 1016.94 1017.30 1018.07 1018.49 1018.42 1018.57 1018.69 1019.07 1020.03 1021.50 1022.42 1023.04 1023.97 1024.50 1025.09 1025.28 1025.67 1025.84 1026.18 1026.42 1026.67 1026.85 1026.84 1026.86 1027.16 1027.48 1028.02 1028.27 1029.07 1030.17 1031.12 1031.49 1033.02 1033.73 1033.82 1033.41 1032.88 1032.25 1031.68
1017.31 1017.05 1016.85 1017.24 1016.99 1016.80 1017.17 1018.08 1018.71 1018.47 1018.56 1018.74 1019.06 1019.67 1020.74 1021.86 1023.15 1023.96 1024.89 1025.99 1026.28 1026.18 1026.45 1026.58 1026.58 1027.12 1027.42 1028.19 1028.41 1028.43 1028.45 1028.84 1029.32 1029.50 1029.83 1030.22 1030.66 1031.69 1032.78 1033.51 1033.54 1033.36 1032.98 1032.44 1031.82
1017.19 1017.30 1017.20 1017.47 1017.15 1016.96 1017.72 1018.98 1018.62 1018.80 1018.65 1018.98 1019.46 1020.15 1021.22 1021.94 1022.77 1024.15 1025.46 1026.37 1026.74 1026.63 1026.65 1026.89 1027.30 1027.62 1028.00 1028.52 1029.06 1028.93 1029.62 1030.18 1030.11 1030.73 1030.90 1030.02 1030.85 1031.92 1032.81 1032.94 1033.21 1033.21 1032.95 1032.41 1031.94
1017.55 1017.72 1017.69 1017.42 1017.35 1017.49 1018.59 1019.21 1019.15 1019.07 1019.02 1019.12 1019.60 1020.36 1021.39 1022.23 1023.10 1024.18 1025.58 1026.51 1026.80 1026.82 1026.77 1027.00 1027.49 1027.93 1028.29 1028.76 1029.30 1029.53 1030.66 1031.04 1031.12 1031.65 1031.51 1030.55 1031.21 1031.91 1032.75 1032.98 1033.38 1033.09 1032.92 1032.64 1031.97
1017.92 1018.05 1017.76 1017.44 1017.65 1018.13 1019.54 1019.63 1019.50 1019.41 1019.37 1019.45 1019.85 1020.69 1021.54 1022.43 1023.43 1024.57 1025.87 1026.74 1026.91 1027.03 1027.00 1027.10 1027.39 1028.40 1028.51 1029.55 1030.27 1030.75 1031.27 1032.22 1032.78 1033.31 1033.23 1032.86 1031.10 1031.75 1032.80 1033.37 1033.65 1033.57 1033.29 1032.70 1032.16
1018.20 1018.60 1017.97 1017.73 1018.81 1019.92 1020.16 1019.87 1019.76 1019.77 1019.69 1019.75 1019.93 1020.68 1021.71 1022.71 1023.80 1024.88 1025.76 1026.43 1026.91 1027.12 1027.33 1027.54 1027.84 1028.53 1029.39 1030.03 1030.54 1031.23 1031.91 1032.42 1033.24 1034.59 1034.95 1034.65 1031.92 1031.71 1032.58 1033.26 1033.72 1033.57 1033.32 1032.85 1032.27
1018.53 1018.69 1018.16 1018.10 1019.57 1020.87 1020.70 1020.47 1020.20 1020.13 1020.08 1020.21 1020.58 1021.01 1021.90 1022.97 1024.28 1025.24 1026.14 1026.88 1027.11 1027.36 1027.49 1027.65 1028.22 1028.85 1029.41 1030.44 1030.71 1031.41 1032.26 1033.04 1033.87 1034.50 1034.92 1034.67 1031.80 1031.96 1032.53 1033.05 1033.28 1033.17 1033.04 1032.57 1032.04
1018.90 1019.36 1019.29 1019.45 1020.23 1020.14 1020.76 1020.73 1020.70 1020.41 1020.36 1020.46 1021.05 1021.45 1022.47 1023.55 1024.34 1025.62 1026.61 1027.21 1027.36 1027.49 1027.58 1027.75 1028.53 1028.62 1029.03 1029.24 1029.98 1031.32 1032.14 1033.06 1033.64 1034.55 1034.79 1033.60 1031.87 1031.89 1032.10 1032.83 1033.00 1033.28 1033.31 1033.01 1032.47
1018.91 1019.50 1019.74 1020.43 1020.66 1020.39 1020.25 1020.57 1020.73 1020.82 1020.74 1020.95 1021.50 1021.77 1022.36 1023.93 1024.88 1025.85 1026.90 1027.58 1027.77 1027.69 1028.23 1028.39 1028.74 1028.87 1028.90 1029.15 1029.72 1030.34 1031.34 1032.45 1033.30 1033.44 1033.70 1032.44 1032.35 1031.48 1032.26 1033.05 1033.28 1033.56 1033.28 1032.81 1032.30
1018.72 1019.53 1020.36 1020.37 1020.53 1020.57 1020.84 1020.90 1020.67 1021.14 1021.20 1021.57 1021.86 1022.25 1022.78 1023.52 1024.08 1025.47 1026.29 1027.13 1027.37 1028.48 1028.83 1029.16 1029.37 1029.32 1029.26 1029.35 1029.72 1030.06 1030.49 1031.39 1032.38 1032.81 1032.88 1032.52 1031.90 1031.47 1032.29 1032.89 1033.22 1033.36 1032.97 1032.67 1032.30
1018.78 1018.76 1018.87 1020.73 1020.82 1020.90 1020.54 1020.48 1020.67 1020.91 1022.18 1022.31 1022.39 1023.01 1023.82 1024.37 1024.74 1025.22 1026.00 1026.37 1026.96 1028.15 1029.23 1029.76 1030.14 1030.33 1029.89 1029.56 1029.48 1029.44 1028.82 1029.85 1030.67 1031.09 1031.42 1031.71 1030.98 1031.75 1032.08 1032.56 1032.89 1033.07 1032.93 1032.73 1032.35
Wind_Speed
11 10 9 8 6 6 6 6 5 7 8 8 8 8 8 9 6 5 6 5 8 17 8 3 3 3 5 6 6 2 5 3 2 5 7 7 5 4 5 12 9 5 6 6 10
11 10 9 8 6 6 6 6 7 8 8 8 9 9 7 7 2 4 2 15 13 9 1 2 3 5 6 5 6 7 5 3 3 5 10 7 9 6 6 8 7 9 11 14 15
11 11 9 7 6 6 6 7 8 8 9 8 9 8 6 1 3 4 13 20 16 6 2 3 5 5 7 5 9 6 5 5 8 14 11 11 10 3 7 10 7 9 12 14 14
12 11 9 8 7 7 7 7 8 8 9 8 8 7 2 2 1 5 19 19 12 4 3 4 6 6 7 7 5 9 7 5 8 7 7 7 8 11 14 5 6 7 8 12 17
12 11 9 8 8 8 7 7 8 9 8 7 7 5 2 7 3 7 18 13 2 4 5 3 5 5 7 7 7 13 6 9 12 15 12 16 13 13 12 8 7 9 14 16 15
11 11 10 9 9 9 9 8 9 10 7 6 5 1 5 6 3 9 9 8 8 6 10 8 6 11 11 7 7 8 18 13 9 11 8 12 6 5 8 7 11 16 15 14 16
11 12 11 9 9 10 11 9 9 8 8 5 2 4 9 2 2 7 9 5 6 5 7 4 5 7 7 10 8 12 13 10 5 3 8 14 12 8 5 6 15 15 15 15 17
11 12 11 9 10 11 12 10 8 7 6 0 3 5 3 1 1 9 7 4 9 7 8 6 12 13 7 10 5 4 5 4 3 6 4 4 7 5 6 9 13 13 14 15 18
12 11 11 10 10 12 13 10 5 4 5 1 5 6 2 4 6 5 5 3 4 5 8 6 8 7 3 3 3 1 1 3 3 2 3 2 8 3 4 9 13 14 15 15 18
13 10 10 10 10 12 12 5 7 3 6 2 3 5 6 4 5 5 5 4 7 2 6 11 8 6 4 6 1 2 1 3 3 2 8 13 11 5 3 11 12 13 16 17 19
12 10 11 11 10 11 7 3 6 7 11 4 1 3 2 6 1 8 5 3 5 10 5 6 11 5 4 2 3 2 2 3 2 3 6 8 9 5 5 14 17 17 17 19 19
12 11 11 11 8 7 3 5 4 4 6 3 2 2 1 1 5 18 7 7 8 5 2 6 5 3 4 5 2 2 3 2 3 6 7 7 5 3 3 8 9 15 18 18 20
12 12 11 11 6 4 3 4 0 3 6 2 2 3 2 6 5 10 7 3 7 10 9 8 3 4 2 6 5 2 1 2 3 5 7 9 2 1 3 4 9 15 13 16 19
12 12 11 13 5 1 2 1 2 2 6 4 2 4 4 4 6 3 5 3 7 5 3 6 4 3 3 4 2 1 1 2 6 5 1 2 3 2 6 10 13 17 16 18 20
12 12 11 6 5 2 2 1 2 4 1 1 2 0 3 6 1 10 3 9 5 2 2 1 5 5 5 2 1 2 1 3 4 4 4 3 3 2 5 10 19 18 18 18 19
12 13 10 2 3 0 2 2 4 7 6 1 1 2 4 7 5 5 8 9 4 6 7 3 1 3 2 3 1 4 3 5 4 2 1 1 1 2 3 10 13 16 17 19 19
12 13 3 1 3 1 2 4 6 4 2 2 1 3 5 5 5 7 6 8 4 3 4 3 3 4 3 2 2 9 3 2 0 1 2 2 2 0 3 6 9 14 16 17 18
12 7 4 2 1 2 4 6 2 2 4 1 3 3 4 2 3 5 3 3 5 4 4 2 1 6 7 3 2 4 2 3 4 3 5 2 5 3 5 4 8 11 12 15 17
7 3 3 4 3 2 6 3 7 6 5 7 3 4 1 1 5 5 4 2 1 2 3 4 0 1 4 2 1 1 6 1 4 1 1 2 2 1 3 9 12 12 13 16 17
2 2 2 5 4 5 6 5 4 2 3 2 4 1 5 2 2 3 1 1 1 0 1 4 3 1 1 1 6 5 4 1 3 3 5 4 3 2 5 13 13 15 15 16 16
3 3 3 5 2 6 5 6 3 2 1 3 4 4 3 5 3 2 3 2 2 1 1 3 1 0 1 4 0 3 2 6 5 2 2 4 3 6 3 6 9 12 13 15 17
3 1 3 2 5 2 5 5 3 3 1 1 4 4 5 4 4 3 5 1 3 2 3 0 4 2 0 1 2 2 2 2 4 2 3 1 8 9 5 5 5 10 11 14 15
3 2 2 3 5 1 2 2 2 4 3 3 3 2 1 5 4 2 3 1 3 4 5 4 2 2 1 1 2 2 2 4 5 3 5 3 5 5 4 5 7 9 12 13 14
4 2 4 5 1 8 6 4 4 1 2 3 5 3 4 3 4 6 3 2 2 2 5 3 3 4 5 2 4 3 4 4 3 3 5 8 8 5 7 8 10 9 12 13 14
3 4 2 4 3 4 3 6 6 6 1 2 2 3 6 5 3 4 3 2 1 5 3 3 3 3 2 1 2 3 5 9 7 4 6 3 8 7 5 4 6 7 10 13 14
5 5 3 1 2 7 2 8 10 4 6 5 4 5 4 6 5 10 8 5 5 2 2 2 3 1 2 1 2 4 6 8 6 3 9 7 15 4 0 2 3 5 10 12 14
1 1 5 3 3 5 6 7 9 10 1 2 4 6 4 2 3 4 5 8 7 8 4 3 5 3 3 3 4 6 7 11 5 5 6 6 6 2 3 5 4 6 8 12 13
Wind_Direction
356 354 343 332 334 333 331 326 325 326 323 320 323 330 335 336 326 37 46 261 294 305 310 272 60 72 48 62 41 92 72 92 90 158 129 146 114 51 64 76 56 45 50 343 337
357 358 350 341 339 334 324 316 319 321 321 321 323 322 330 335 57 45 168 327 323 320 291 49 74 57 56 33 25 46 71 73 303 122 124 99 99 102 83 56 44 33 17 3 3
1 359 354 347 342 326 316 312 315 316 316 324 326 314 316 303 70 304 338 333 330 337 154 89 88 67 64 33 10 30 88 133 59 103 109 104 76 60 115 54 33 17 357 359 356
2 355 356 351 344 322 310 315 314 314 314 317 316 322 308 27 68 289 336 326 332 118 101 95 47 60 67 50 5 99 48 94 109 102 96 93 100 74 66 73 23 25 6 4 3
360 349 356 357 350 328 318 326 319 311 306 307 314 333 64 45 336 316 329 331 41 65 50 84 65 102 98 102 72 84 103 59 97 92 86 97 88 95 65 40 23 22 20 10 358
359 347 350 359 347 327 320 326 323 312 304 299 312 310 74 70 316 333 329 350 27 51 42 39 94 100 87 54 52 98 103 107 94 105 129 106 81 86 39 11 33 25 13 0 352
360 346 342 354 337 322 315 316 318 305 298 297 298 90 66 182 16 342 18 15 358 45 80 22 124 75 124 97 129 116 98 104 119 121 129 113 48 67 20 12 35 15 4 356 352
348 344 336 342 337 322 313 313 309 311 319 121 113 76 98 68 180 22 348 34 35 52 91 109 88 89 71 114 107 93 129 141 169 177 160 333 106 62 10 22 25 7 1 353 348
333 342 333 332 338 321 312 315 340 50 50 111 39 90 96 338 28 326 36 4 332 47 45 75 66 84 65 103 92 53 192 129 163 242 118 44 132 147 25 29 23 8 355 351 345
326 341 330 325 335 321 314 287 343 25 3 30 60 53 11 322 317 349 334 36 64 31 29 35 54 73 39 32 237 243 172 102 155 101 54 95 128 161 50 29 19 4 356 348 345
326 338 331 323 335 327 353 26 21 355 37 96 143 118 348 298 323 353 348 20 20 52 58 21 61 44 317 253 259 223 142 116 99 75 95 134 145 167 31 30 13 2 353 346 343
328 327 329 322 331 331 57 95 155 170 88 15 78 59 79 104 27 353 17 67 42 73 337 42 59 326 269 351 147 123 114 88 98 65 92 154 143 168 8 29 14 353 344 341 339
328 321 329 317 322 45 79 138 256 144 91 3 32 62 348 70 60 335 17 78 76 58 38 91 311 311 135 28 41 50 101 146 85 114 67 142 219 285 316 335 350 348 339 343 344
326 321 331 315 51 236 48 229 300 182 74 306 354 357 16 109 57 343 13 101 42 126 95 78 340 30 56 70 1 95 22 245 150 159 135 265 301 7 329 321 347 343 349 347 345
325 321 327 354 149 106 162 299 253 54 18 219 34 71 46 79 143 6 353 36 72 57 136 224 12 12 48 9 345 246 334 114 134 105 136 193 269 130 337 330 344 339 342 343 346
326 321 326 331 56 25 348 354 45 48 252 133 50 14 62 23 33 307 27 36 144 69 39 104 99 60 292 308 56 309 116 67 70 88 270 130 245 146 20 325 325 331 340 343 343
329 319 356 323 178 70 55 50 48 150 28 192 121 74 76 21 37 35 37 20 51 85 21 19 19 344 29 1 34 35 59 341 357 340 288 115 223 6 183 333 318 326 334 337 341
328 323 19 354 337 103 63 53 202 199 197 125 115 83 90 4 31 32 84 59 40 46 90 74 20 13 346 67 268 24 50 101 282 311 304 283 238 59 173 299 314 318 325 340 344
330 343 57 321 313 66 77 92 212 200 168 146 91 100 64 107 118 89 51 121 245 15 117 127 42 71 58 57 332 42 51 179 104 86 284 266 273 138 262 334 333 341 345 345 343
72 54 290 317 325 65 82 226 207 185 137 156 140 142 158 176 105 85 179 225 194 80 231 186 109 53 79 146 54 75 143 100 35 30 308 289 278 219 338 326 334 341 344 343 344
57 72 273 357 44 55 168 214 191 214 209 154 157 121 129 147 108 118 164 240 207 148 145 153 85 198 38 26 9 15 64 62 106 38 203 313 290 179 178 307 314 333 333 339 342
107 78 313 29 62 353 158 174 151 167 153 118 101 106 145 149 118 134 173 213 167 180 157 187 122 112 247 49 80 80 134 119 120 217 59 89 277 167 169 298 305 324 336 340 344
138 203 341 84 147 224 248 107 155 143 182 152 120 104 85 135 114 138 147 138 162 162 166 183 42 48 254 248 359 203 128 97 94 88 192 165 271 189 251 314 353 340 341 340 343
104 117 340 53 31 139 150 178 169 255 142 108 128 101 112 100 26 156 134 199 160 163 105 89 111 171 204 188 121 157 183 158 122 137 169 232 290 259 314 350 329 342 340 337 344
48 232 199 201 244 149 132 135 138 175 168 177 87 200 156 121 104 140 129 125 38 167 72 116 162 189 227 197 180 199 175 179 182 170 187 253 234 283 291 301 306 322 332 343 347
146 144 9 108 85 111 136 212 163 163 143 217 206 152 151 153 185 186 141 194 183 150 118 2 161 147 269 217 234 265 215 194 203 193 265 265 281 214 207 254 296 325 338 344 344
204 11 112 295 141 120 208 181 192 137 68 50 161 116 122 128 99 85 91 82 125 139 140 109 132 104 277 351 318 289 213 182 168 190 163 210 232 155 289 325 338 328 342 337 339